Location: Newark
(11.4947°N, 0.1467°E)
Time: 20:31:35
(UTC+00:00)

Envisat - Pass Details

Date: 17 November 2019
Orbit: 764 x 766 km, 98.1° (Epoch: 15 December)

Event Time Altitude Azimuth Distance (km) Brightness Sun altitude
Rises 18:20:01 0° 168° (SSE) 3,223 6.3 -12.0°
Reaches altitude 10° 18:22:19 10° 168° (SSE) 2,297 5.5 -12.6°
Maximum altitude 18:27:23 88° 256° (WSW) 769 3.0 -13.8°
Drops below altitude 10° 18:32:27 10° 348° (NNW) 2,296 5.4 -14.9°
Sets 18:34:45 0° 348° (NNW) 3,222 6.2 -15.5°
